timestamp,wind_dir_avg,wind_spd_avg,wind_spd_max_dir,wind_spd_gust,battery_voltage,lat,long
2021-02-07 00:04:01+00:00,215.0,10.5,221.0,12.03,12.33,47.59359,-54.27349
2021-02-07 00:14:01+00:00,218.0,11.13,217.0,12.82,12.33,47.59359,-54.27349
2021-02-07 00:24:01+00:00,220.0,10.81,218.0,12.69,12.33,47.59359,-54.27349
2021-02-07 00:34:01+00:00,221.0,9.74,219.0,11.07,12.33,47.59359,-54.27349
2021-02-07 00:44:01+00:00,245.0,8.55,248.0,9.77,12.33,47.59359,-54.27349
2021-02-07 00:54:01+00:00,253.0,9.93,256.0,14.15,12.33,47.59359,-54.27349
2021-02-07 01:04:01+00:00,245.0,8.08,243.0,8.88,12.33,47.59359,-54.27349
2021-02-07 01:14:01+00:00,238.0,9.18,240.0,10.48,12.33,47.59359,-54.27349
2021-02-07 01:24:01+00:00,252.0,12.11,252.0,14.26,12.33,47.59359,-54.27349
2021-02-07 01:34:01+00:00,249.0,10.37,256.0,13.81,12.33,47.59359,-54.27349
2021-02-07 01:44:01+00:00,240.0,8.66,249.0,11.3,12.33,47.59359,-54.27349
2021-02-07 01:54:01+00:00,249.0,8.53,254.0,11.94,12.33,47.59359,-54.27349
2021-02-07 02:04:01+00:00,247.0,7.61,246.0,8.39,12.33,47.59359,-54.27349
2021-02-07 02:14:01+00:00,245.0,8.24,252.0,10.36,12.33,47.59359,-54.27349
2021-02-07 02:24:01+00:00,245.0,8.24,246.0,8.9,12.33,47.59359,-54.27349
2021-02-07 02:34:01+00:00,244.0,7.66,239.0,8.77,12.33,47.59359,-54.27349
2021-02-07 02:44:01+00:00,251.0,7.31,252.0,8.45,12.33,47.59359,-54.27349
2021-02-07 02:54:01+00:00,251.0,7.85,247.0,8.53,12.33,47.59359,-54.27349
2021-02-07 03:04:01+00:00,247.0,7.31,243.0,8.37,12.33,47.59359,-54.27349
2021-02-07 03:14:01+00:00,243.0,6.88,246.0,7.73,12.33,47.59359,-54.27349
2021-02-07 03:24:01+00:00,238.0,5.97,243.0,6.53,12.33,47.59359,-54.27349
2021-02-07 03:34:01+00:00,234.0,7.27,233.0,7.95,12.33,47.59359,-54.27349
2021-02-07 03:44:01+00:00,228.0,8.43,234.0,10.13,12.33,47.59359,-54.27349
2021-02-07 03:54:01+00:00,235.0,10.0,236.0,12.05,12.33,47.59359,-54.27349
2021-02-07 04:04:01+00:00,241.0,10.34,246.0,11.19,12.33,47.59359,-54.27349
2021-02-07 04:14:01+00:00,245.0,8.69,247.0,9.78,12.33,47.59359,-54.27349
2021-02-07 04:24:01+00:00,255.0,11.16,253.0,12.94,12.33,47.59359,-54.27349
2021-02-07 04:34:01+00:00,258.0,12.19,262.0,15.03,12.33,47.59359,-54.27349
2021-02-07 04:44:01+00:00,264.0,11.26,268.0,12.93,12.33,47.59359,-54.27349
2021-02-07 04:54:01+00:00,254.0,11.59,255.0,13.67,12.33,47.59359,-54.27349
2021-02-07 05:04:01+00:00,262.0,12.6,267.0,14.4,12.33,47.59359,-54.27349
2021-02-07 05:14:01+00:00,261.0,11.53,261.0,12.72,12.25,47.59359,-54.27349
2021-02-07 05:24:01+00:00,255.0,11.72,252.0,14.01,12.25,47.59359,-54.27349
2021-02-07 05:34:01+00:00,263.0,10.21,263.0,11.82,12.25,47.59359,-54.27349
2021-02-07 05:44:01+00:00,258.0,12.5,262.0,15.35,12.25,47.59359,-54.27349
2021-02-07 05:54:01+00:00,249.0,11.08,246.0,12.95,12.25,47.59359,-54.27349
2021-02-07 06:04:01+00:00,262.0,12.83,271.0,17.66,12.25,47.59359,-54.27349
2021-02-07 06:14:01+00:00,264.0,16.19,263.0,18.33,12.25,47.59359,-54.27349
2021-02-07 06:24:01+00:00,263.0,14.04,265.0,18.29,12.25,47.59359,-54.27349
2021-02-07 06:34:01+00:00,260.0,12.78,262.0,18.05,12.25,47.59359,-54.27349
2021-02-07 06:44:01+00:00,267.0,14.87,272.0,18.42,12.25,47.59359,-54.27349
2021-02-07 06:54:01+00:00,266.0,16.98,272.0,18.68,12.25,47.59359,-54.27349
2021-02-07 07:04:01+00:00,270.0,17.05,280.0,19.6,12.25,47.59359,-54.27349
2021-02-07 07:14:01+00:00,265.0,16.59,275.0,18.86,12.25,47.59359,-54.27349
2021-02-07 07:24:01+00:00,274.0,17.07,276.0,18.71,12.25,47.59359,-54.27349
2021-02-07 07:34:01+00:00,272.0,13.69,274.0,18.72,12.25,47.59359,-54.27349
2021-02-07 07:44:01+00:00,270.0,16.23,270.0,18.42,12.25,47.59359,-54.27349
2021-02-07 07:54:01+00:00,268.0,14.13,271.0,18.24,12.25,47.59359,-54.27349
2021-02-07 08:04:01+00:00,263.0,16.57,259.0,18.78,12.25,47.59359,-54.27349
2021-02-07 08:14:01+00:00,268.0,14.8,263.0,20.57,12.25,47.59359,-54.27349
2021-02-07 08:24:01+00:00,266.0,11.89,265.0,17.18,12.25,47.59359,-54.27349
2021-02-07 08:34:01+00:00,275.0,17.34,275.0,20.59,12.25,47.59359,-54.27349
2021-02-07 08:44:01+00:00,260.0,16.25,267.0,20.03,12.25,47.59359,-54.27349
2021-02-07 08:54:01+00:00,265.0,15.39,264.0,17.62,12.25,47.59359,-54.27349
2021-02-07 09:04:01+00:00,272.0,15.27,272.0,19.14,12.25,47.59359,-54.27349
2021-02-07 09:14:01+00:00,267.0,16.5,266.0,19.7,12.25,47.59359,-54.27349
2021-02-07 09:24:01+00:00,273.0,13.58,277.0,18.22,12.25,47.59359,-54.27349
2021-02-07 09:34:01+00:00,273.0,13.68,283.0,16.3,12.25,47.59359,-54.27349
2021-02-07 09:44:01+00:00,267.0,18.94,259.0,25.36,12.25,47.59359,-54.27349
2021-02-07 09:54:01+00:00,267.0,18.29,275.0,25.8,12.25,47.59359,-54.27349
2021-02-07 10:04:01+00:00,259.0,17.07,255.0,19.9,12.25,47.59359,-54.27349
2021-02-07 10:14:01+00:00,269.0,15.45,271.0,18.28,12.25,47.59359,-54.27349
2021-02-07 10:24:01+00:00,262.0,20.97,258.0,24.67,12.25,47.59359,-54.27349
2021-02-07 10:34:01+00:00,258.0,16.77,254.0,20.19,12.25,47.59359,-54.27349
2021-02-07 10:44:01+00:00,267.0,17.51,277.0,19.87,12.25,47.59359,-54.27349
2021-02-07 10:54:01+00:00,261.0,16.47,260.0,19.51,12.25,47.59359,-54.27349
2021-02-07 11:04:01+00:00,266.0,14.82,266.0,18.16,12.25,47.59359,-54.27349
2021-02-07 11:14:01+00:00,269.0,18.82,272.0,24.33,12.25,47.59359,-54.27349
2021-02-07 11:24:01+00:00,263.0,25.25,261.0,31.06,12.25,47.59359,-54.27349
2021-02-07 11:34:01+00:00,265.0,21.87,267.0,25.56,12.25,47.59359,-54.27349
2021-02-07 11:44:01+00:00,267.0,19.43,267.0,23.53,12.25,47.59359,-54.27349
2021-02-07 11:54:01+00:00,263.0,19.09,259.0,24.11,12.25,47.59359,-54.27349
2021-02-07 12:04:01+00:00,271.0,21.22,274.0,25.72,12.25,47.59359,-54.27349
2021-02-07 13:14:01+00:00,269.0,14.65,274.0,17.91,13.84,47.59359,-54.27349
2021-02-07 13:24:01+00:00,270.0,15.66,275.0,19.04,13.84,47.59359,-54.27349
2021-02-07 13:34:01+00:00,276.0,22.04,275.0,27.03,13.84,47.59359,-54.27349
2021-02-07 13:44:01+00:00,272.0,20.74,277.0,25.75,13.84,47.59359,-54.27349
2021-02-07 13:54:01+00:00,280.0,21.45,281.0,27.66,13.84,47.59359,-54.27349
2021-02-07 14:04:01+00:00,266.0,18.76,266.0,23.41,13.84,47.59359,-54.27349
2021-02-07 14:14:01+00:00,268.0,20.42,273.0,26.65,13.68,47.59359,-54.27349
2021-02-07 14:24:01+00:00,281.0,18.5,284.0,22.33,13.68,47.59359,-54.27349
2021-02-07 14:34:01+00:00,280.0,16.07,285.0,18.57,13.68,47.59359,-54.27349
2021-02-07 14:44:01+00:00,270.0,18.91,278.0,23.26,13.68,47.59359,-54.27349
2021-02-07 14:54:01+00:00,273.0,16.32,271.0,18.47,13.68,47.59359,-54.27349
2021-02-07 15:04:01+00:00,276.0,15.44,284.0,18.17,13.68,47.59359,-54.27349
2021-02-07 15:14:01+00:00,268.0,16.82,267.0,21.22,13.53,47.59359,-54.27349
2021-02-07 15:24:01+00:00,273.0,17.87,278.0,22.69,13.53,47.59359,-54.27349
2021-02-07 15:34:01+00:00,279.0,18.2,275.0,21.78,13.53,47.59359,-54.27349
2021-02-07 15:44:01+00:00,265.0,18.64,263.0,28.17,13.53,47.59359,-54.27349
2021-02-07 15:54:01+00:00,271.0,17.87,271.0,22.86,13.53,47.59359,-54.27349
2021-02-07 16:04:01+00:00,265.0,14.69,267.0,17.39,13.53,47.59359,-54.27349
2021-02-07 16:14:01+00:00,277.0,16.93,274.0,19.03,14.08,47.59359,-54.27349
2021-02-07 16:24:01+00:00,277.0,18.36,274.0,22.45,14.08,47.59359,-54.27349
2021-02-07 16:34:01+00:00,283.0,15.65,289.0,18.65,14.08,47.59359,-54.27349
2021-02-07 16:44:01+00:00,277.0,15.91,275.0,18.25,14.08,47.59359,-54.27349
2021-02-07 16:54:01+00:00,277.0,16.97,283.0,19.01,14.08,47.59359,-54.27349
2021-02-07 17:04:01+00:00,279.0,16.99,279.0,19.95,14.08,47.59359,-54.27349
2021-02-07 17:14:01+00:00,278.0,15.38,273.0,18.14,13.68,47.59359,-54.27349
2021-02-07 17:24:01+00:00,273.0,15.32,268.0,18.76,13.68,47.59359,-54.27349
2021-02-07 17:34:01+00:00,281.0,17.4,278.0,19.89,13.68,47.59359,-54.27349
2021-02-07 17:44:01+00:00,283.0,13.24,293.0,16.59,13.68,47.59359,-54.27349
2021-02-07 17:54:01+00:00,270.0,13.12,276.0,15.35,13.68,47.59359,-54.27349
2021-02-07 18:04:01+00:00,273.0,13.26,276.0,15.8,13.68,47.59359,-54.27349
2021-02-07 18:14:01+00:00,270.0,13.85,264.0,16.36,14.4,47.59359,-54.27349
2021-02-07 18:24:01+00:00,274.0,12.55,276.0,14.94,14.4,47.59359,-54.27349
2021-02-07 18:34:01+00:00,268.0,12.56,273.0,14.53,14.4,47.59359,-54.27349
2021-02-07 18:44:01+00:00,267.0,12.69,263.0,15.32,14.4,47.59359,-54.27349
2021-02-07 18:54:01+00:00,271.0,14.15,278.0,17.6,14.4,47.59359,-54.27349
2021-02-07 19:04:01+00:00,267.0,12.42,276.0,16.87,14.4,47.59359,-54.27349
2021-02-07 19:14:01+00:00,267.0,14.16,271.0,16.27,14.16,47.59359,-54.27349
2021-02-07 19:24:01+00:00,267.0,13.87,274.0,17.1,14.16,47.59359,-54.27349
2021-02-07 19:34:01+00:00,265.0,13.65,267.0,20.6,14.16,47.59359,-54.27349
2021-02-07 19:44:01+00:00,260.0,13.36,257.0,15.28,14.16,47.59359,-54.27349
2021-02-07 19:54:01+00:00,263.0,12.32,263.0,14.28,14.16,47.59359,-54.27349
2021-02-07 20:04:01+00:00,256.0,12.06,258.0,13.66,14.16,47.59359,-54.27349
2021-02-07 20:14:01+00:00,258.0,13.27,258.0,14.68,13.76,47.59359,-54.27349
2021-02-07 20:24:01+00:00,256.0,13.03,261.0,14.4,13.76,47.59359,-54.27349
2021-02-07 20:34:01+00:00,256.0,12.52,261.0,15.5,13.76,47.59359,-54.27349
2021-02-07 20:44:01+00:00,251.0,11.33,255.0,12.88,13.76,47.59359,-54.27349
2021-02-07 20:54:01+00:00,254.0,11.38,252.0,13.61,13.76,47.59359,-54.27349
2021-02-07 21:04:01+00:00,251.0,10.36,258.0,16.1,13.76,47.59359,-54.27349
2021-02-07 21:14:01+00:00,258.0,11.1,263.0,13.1,12.81,47.59359,-54.27349
2021-02-07 21:24:01+00:00,250.0,9.72,257.0,11.13,12.81,47.59359,-54.27349
2021-02-07 21:34:01+00:00,252.0,9.93,255.0,12.14,12.81,47.59359,-54.27349
2021-02-07 21:44:01+00:00,257.0,9.73,259.0,12.13,12.81,47.59359,-54.27349
2021-02-07 21:54:01+00:00,251.0,10.59,257.0,12.79,12.81,47.59359,-54.27349
2021-02-07 22:04:01+00:00,254.0,11.7,257.0,16.54,12.81,47.59359,-54.27349
2021-02-07 22:14:01+00:00,264.0,12.44,261.0,14.68,12.57,47.59359,-54.27349
2021-02-07 22:24:01+00:00,271.0,12.55,280.0,14.37,12.57,47.59359,-54.27349
2021-02-07 22:34:01+00:00,264.0,12.19,255.0,15.23,12.57,47.59359,-54.27349
2021-02-07 22:44:01+00:00,269.0,10.8,276.0,12.99,12.57,47.59359,-54.27349
2021-02-07 22:54:01+00:00,258.0,11.41,267.0,14.74,12.57,47.59359,-54.27349
2021-02-07 23:04:01+00:00,268.0,10.65,269.0,12.09,12.57,47.59359,-54.27349
2021-02-07 23:14:01+00:00,269.0,11.53,270.0,12.71,12.57,47.59359,-54.27349
2021-02-07 23:24:01+00:00,264.0,10.2,272.0,12.25,12.57,47.59359,-54.27349
2021-02-07 23:34:01+00:00,270.0,10.02,270.0,11.65,12.57,47.59359,-54.27349
2021-02-07 23:44:01+00:00,260.0,8.78,263.0,9.96,12.57,47.59359,-54.27349
2021-02-07 23:54:01+00:00,259.0,8.59,255.0,11.03,12.57,47.59359,-54.27349
